SGDC

Last updated on Jan. 24, 2020, 4:41 a.m. UTC

1 42692U 17023B   20022.86986608 -.00000257  00000-0  00000-0 0  9998
2 42692   0.0163 346.0740 0001900 320.5241  53.3551  1.00271577  9995
UTC
Height (km)
Latitude
Longitude
Inclination
Orbital Period
UTC large
Height (km)
Speed (km/s)
/
Latitude / Longitude
Inclination (degrees)
Orbital Period (minutes)
Azimuth
Elevation
Range (km)
Doppler Factor
iOS Compass Heading
iOS Angle

Next 30 passes for location: Hong Kong

Rise time Rise Azimuth (degrees) Set time Set Azimuth (degrees) Duration Max altitude (degrees)

No matching passes for this satellites